Tracking 22780 objects as of 11-Apr-2021
HD Live streaming from Space Station
objects crossing your sky now

STARLINK-1291

Track STARLINK-1291 now!
10-day predictions
STARLINK-1291 is classified as:


NORAD ID: 45393
Int'l Code: 2020-019AK
Perigee: 553.2 km
Apogee: 555.5 km
Inclination: 53.1 °
Period: 95.6 minutes
Semi major axis: 6925 km
RCS: Unknown
Launch date: March 18, 2020
Source: United States (US)
Launch site: AIR FORCE EASTERN TEST RANGE (AFETR)
aabbcc
Your satellite tracking list
Your tracking list is empty




NASA's NSSDC Master Catalog

Two Line Element Set (TLE):
1 45393U 20019AK  21100.84308524  .00000421  00000-0  47204-4 0  9992
2 45393  53.0558 279.5060 0001670  93.5793 266.5387 15.06388906 59390
Source of the keplerian elements: AFSPC